Theta_e
323 318 318 313 302 300 296 301 305 305 301 306 310 308 306 309 308 303 323 326 333 338 342 344 346 348 349 348 347 347 347 345 343 343 342 341 341 340 340 340 340 341 341 341 341 341 341 342 342
316 317 314 308 299 293 296 302 303 307 307 308 309 308 306 307 313 316 320 326 337 337 341 343 344 346 348 348 347 347 347 346 344 344 343 343 342 342 342 341 341 342 343 343 344 344 342 342 342
317 315 308 304 300 297 296 303 306 309 306 304 301 305 305 307 314 317 321 326 336 336 340 343 343 346 348 348 347 347 347 347 346 345 344 344 344 344 344 344 343 343 344 345 345 345 342 340 337
310 310 308 301 300 304 305 306 307 309 309 306 303 298 302 311 316 321 325 326 334 335 338 341 344 347 348 348 347 347 347 347 347 346 347 345 346 347 347 345 345 345 345 345 342 340 339 337 336
310 304 299 298 301 305 309 312 312 311 312 308 305 302 305 312 320 323 323 325 327 334 337 339 342 346 347 347 347 347 346 347 347 347 347 347 346 345 345 343 342 341 341 340 338 335 334 333 330
304 309 300 298 301 306 310 313 312 312 313 314 307 304 308 314 317 321 323 323 326 333 335 340 337 340 344 346 346 345 345 345 346 346 346 345 342 341 340 340 340 338 337 336 333 331 330 326 323
300 301 300 302 302 304 309 313 308 309 311 313 318 309 310 309 313 320 322 322 325 332 335 338 339 339 336 340 341 342 342 343 344 345 344 341 339 339 338 337 336 335 334 332 329 327 323 321 318
303 301 297 299 299 301 310 311 313 312 309 314 316 308 309 312 312 317 319 322 325 332 334 335 336 339 340 341 334 336 338 340 341 339 336 332 332 332 332 330 332 331 330 328 325 322 319 317 316
303 294 291 294 296 299 307 306 312 316 307 309 314 313 310 310 313 313 314 318 323 329 333 333 334 336 338 341 336 332 333 334 334 332 327 325 324 324 322 321 327 330 327 324 321 318 316 314 312
291 288 291 296 298 300 304 303 301 297 297 297 305 308 308 309 311 311 312 315 319 325 329 333 333 335 336 339 337 336 336 336 334 329 325 323 319 316 316 315 322 325 323 322 319 316 313 312 302
291 288 292 292 294 296 294 296 296 293 293 296 299 308 307 305 308 311 313 316 319 324 330 332 333 334 334 336 333 333 334 331 327 324 320 319 314 312 309 310 311 311 314 311 311 307 303 300 300
286 291 293 294 295 294 293 294 293 293 294 298 299 303 304 307 306 309 311 314 317 322 329 330 334 334 333 332 331 330 328 326 323 321 319 316 309 306 307 306 305 306 306 305 303 300 299 300 301
288 289 291 293 293 292 292 291 291 292 293 296 298 301 301 303 306 310 313 314 317 321 326 329 332 333 332 328 329 326 327 324 322 319 318 314 307 306 306 305 304 304 304 302 300 300 300 300 300
289 290 290 291 291 291 291 292 291 295 294 294 296 297 299 301 303 307 309 311 314 319 324 328 330 331 330 327 328 326 326 324 321 318 317 311 307 306 305 303 303 302 302 301 300 300 299 299 300
291 286 289 289 289 289 292 289 290 296 296 295 296 297 299 300 301 303 309 311 312 316 321 326 328 329 329 328 327 327 326 324 319 317 315 310 306 305 304 303 302 302 302 301 300 300 299 299 299
285 284 280 289 291 291 291 283 290 292 291 292 295 296 297 299 300 302 304 310 312 312 315 326 328 327 327 328 326 326 322 319 316 313 312 308 306 305 302 302 301 301 301 301 299 298 298 298 297
281 278 280 284 290 289 289 286 292 295 293 292 290 293 296 297 297 299 302 305 307 311 313 320 326 326 326 327 327 322 315 315 310 308 308 306 306 305 303 302 301 301 300 300 300 298 297 296 295
278 277 281 282 286 288 286 287 291 291 291 290 290 290 292 295 298 301 302 304 306 306 310 317 325 326 326 326 321 314 310 310 307 306 306 305 305 305 303 302 302 302 300 300 299 297 296 296 296
283 282 282 285 288 286 285 286 289 292 292 293 294 291 293 295 298 298 299 301 304 306 307 313 319 323 324 318 310 307 306 304 304 304 305 305 305 304 303 303 302 302 300 300 299 297 295 294 294
282 280 280 284 287 285 285 286 290 290 290 293 294 290 292 294 295 298 300 301 301 304 305 309 315 318 320 316 314 310 307 304 304 304 304 305 304 304 304 303 302 301 299 299 298 296 294 295 294
281 280 280 280 284 286 284 283 286 290 289 290 292 292 293 294 295 296 296 299 298 299 300 307 312 314 317 316 312 304 301 300 299 301 303 304 304 304 303 303 301 301 301 299 298 297 296 292 292
280 286 285 284 282 278 283 276 284 288 290 291 291 292 294 294 295 296 296 294 295 297 300 305 310 311 314 312 307 304 302 300 301 302 303 303 304 303 303 303 302 301 301 299 299 298 296 293 291
282 285 283 282 279 280 281 278 282 287 285 289 292 291 289 288 289 288 289 291 291 292 298 303 307 309 310 308 306 304 302 303 302 302 302 302 302 303 302 302 301 300 299 299 298 297 296 294 292
282 284 281 281 278 274 279 278 279 283 285 288 292 295 287 287 287 288 289 290 290 291 294 297 302 306 307 306 304 303 301 301 300 300 300 301 301 301 301 301 300 299 299 298 297 297 295 294 293
276 273 273 270 270 271 279 275 279 286 287 288 288 284 284 286 286 286 287 287 288 289 291 297 297 299 304 303 302 301 300 300 299 299 299 299 299 299 300 300 300 299 299 299 298 296 296 295 293
273 273 272 268 271 272 277 273 278 288 289 290 285 285 285 285 286 285 286 286 287 288 289 290 296 296 298 300 300 299 299 299 298 299 299 299 299 300 300 300 299 299 298 298 297 296 295 294 293
271 270 275 271 273 271 277 280 285 285 284 284 283 283 283 283 284 284 284 285 286 286 287 288 289 295 296 297 298 297 296 297 296 297 298 298 299 299 299 299 298 298 297 296 295 294 293 293 291
275 276 270 274 268 268 275 276 276 280 280 281 280 280 281 282 281 282 282 284 285 286 286 287 288 289 291 296 297 297 296 296 295 296 296 297 297 298 298 298 297 297 296 296 295 293 292 292 291
270 268 270 270 273 269 269 271 281 279 280 279 279 280 280 279 279 279 279 281 283 283 283 284 285 287 289 291 295 295 295 295 294 296 296 296 296 297 297 297 297 296 295 295 294 294 293 292 290
272 269 270 264 263 266 270 273 282 282 281 280 278 278 278 278 277 276 276 277 279 280 281 281 282 284 286 289 292 294 295 295 294 294 295 296 296 297 297 297 296 296 295 295 294 292 293 292 290
Wind_Speed
5 7 1 4 3 3 4 7 6 14 9 3 3 6 3 5 3 4 1 9 13 15 17 20 23 23 21 20 19 18 17 17 16 15 14 14 13 12 12 11 10 10 11 11 12 12 11 11 9
3 5 3 0 3 3 6 8 13 12 9 1 5 4 5 7 3 6 7 7 17 16 16 18 21 22 22 21 20 18 17 17 17 16 15 14 14 13 12 11 10 9 9 11 12 12 13 12 11
4 3 2 4 4 11 6 10 15 11 6 3 1 2 4 3 3 8 7 10 17 15 16 16 21 23 22 20 20 19 18 17 17 16 16 15 15 14 13 11 11 10 9 10 12 12 13 8 7
1 3 3 3 14 11 10 11 9 7 5 2 6 2 4 3 10 10 10 11 15 14 16 15 20 21 22 23 21 20 18 17 17 17 16 16 15 15 16 11 10 11 12 14 11 11 10 9 9
1 1 3 5 20 7 9 17 14 20 12 7 3 6 5 4 9 10 9 10 15 14 14 16 20 21 21 22 21 21 20 18 18 17 16 14 16 14 15 14 11 10 10 11 10 10 10 10 8
0 3 4 10 20 15 15 11 13 16 18 17 4 4 7 7 11 11 11 10 11 16 14 16 19 17 17 20 21 22 21 19 17 15 17 17 16 14 11 12 12 12 12 12 12 11 11 9 8
4 3 9 12 20 21 14 10 8 8 8 14 14 9 6 7 11 14 13 10 9 12 14 14 16 16 14 15 17 17 20 18 16 17 17 16 15 13 12 12 13 13 13 13 12 11 10 9 7
3 3 5 8 18 28 15 8 9 13 9 4 6 6 9 5 9 5 5 9 10 12 14 14 14 14 12 12 15 15 14 14 14 16 13 14 14 11 11 10 11 13 14 12 11 10 8 7 7
2 5 12 18 17 25 14 13 11 14 6 4 6 5 4 6 12 8 5 2 5 8 12 14 14 14 14 14 12 14 13 14 17 14 13 14 7 7 8 7 10 12 13 13 11 10 8 6 5
7 7 13 9 10 14 15 13 9 7 10 6 7 4 5 5 9 12 10 10 7 10 12 14 14 14 12 11 11 11 10 11 11 11 10 9 8 6 7 7 10 12 11 13 12 10 9 6 2
8 15 13 11 10 8 12 19 7 8 12 7 8 6 8 5 9 14 16 16 17 11 10 12 13 13 14 11 8 6 7 7 7 11 9 10 6 5 4 3 3 4 6 4 6 6 4 4 3
10 9 15 13 9 8 13 17 16 11 17 9 15 10 8 11 10 10 11 13 10 11 16 12 14 14 13 8 8 8 7 7 7 8 10 9 5 5 6 4 5 4 4 5 5 3 5 5 6
14 12 14 17 15 15 12 20 24 26 10 12 13 21 19 15 11 13 14 11 11 13 13 15 14 14 13 13 9 8 9 8 9 9 9 9 7 7 7 6 5 4 4 4 4 4 4 5 4
5 7 13 8 9 6 10 18 9 25 7 14 18 22 24 21 13 11 11 13 15 16 15 18 18 17 16 13 14 11 9 9 9 9 10 10 9 8 8 7 6 6 5 5 5 5 4 4 4
9 15 18 16 8 8 2 25 29 30 16 22 20 21 22 21 18 14 17 18 18 16 17 19 20 17 17 18 15 12 11 11 10 9 12 12 10 10 9 7 6 6 6 7 5 4 3 3 3
7 5 5 3 14 9 13 36 2 10 9 15 19 19 23 22 17 16 13 17 16 14 17 19 18 19 19 17 14 12 11 11 10 10 10 13 12 10 7 6 6 5 5 5 5 5 3 3 4
5 15 17 23 15 8 15 28 15 19 17 20 9 12 15 12 11 14 14 14 16 18 15 18 21 22 22 19 14 13 13 11 10 10 10 13 12 12 10 8 6 7 5 4 5 3 4 3 3
9 9 15 18 7 18 17 30 22 7 8 13 12 10 10 12 15 14 15 17 17 18 18 20 19 22 21 15 11 9 10 10 10 10 11 15 12 14 11 8 8 8 7 5 4 5 2 3 4
20 21 23 22 6 12 15 25 27 16 17 24 20 13 17 18 13 11 11 11 13 15 17 18 20 20 16 14 13 12 13 10 10 10 15 16 13 14 13 9 10 10 10 9 7 4 5 2 3
23 28 30 30 19 11 16 26 30 16 12 20 20 15 16 17 19 18 21 17 13 15 16 16 20 21 19 14 13 10 12 9 9 8 10 14 14 15 14 14 11 11 8 10 9 6 4 3 5
27 23 26 24 22 18 21 22 27 18 11 15 16 15 15 22 26 21 20 17 13 12 11 17 20 21 21 18 11 5 5 4 5 9 9 12 16 15 16 15 13 12 11 10 11 9 7 5 3
30 24 28 27 20 19 8 23 26 23 22 15 17 19 24 19 22 22 21 14 12 13 12 16 18 21 20 19 16 18 17 14 11 13 12 13 17 17 15 15 15 14 11 13 12 10 7 6 5
24 14 15 20 25 24 25 16 23 17 15 19 20 16 8 7 8 10 10 8 7 7 10 16 18 20 19 20 20 17 16 12 9 11 14 14 12 14 13 13 13 13 9 9 12 10 8 4 5
21 22 18 20 13 19 28 18 17 22 18 16 17 19 6 9 9 11 9 10 13 11 8 5 12 18 20 20 20 21 20 16 11 13 12 11 11 11 14 15 14 12 11 11 10 9 9 7 5
30 25 7 6 7 11 11 11 17 20 10 15 11 8 9 10 13 14 16 16 16 18 17 7 1 7 14 17 17 18 17 17 16 15 13 14 11 11 16 17 15 14 13 12 11 10 10 9 6
33 15 11 12 8 4 6 7 7 23 13 16 14 9 11 14 13 15 16 15 16 17 18 17 7 3 7 12 14 11 12 10 9 13 12 11 12 12 15 15 14 14 13 11 10 8 7 8 6
14 18 26 10 4 4 3 6 10 16 17 18 15 14 14 15 15 17 17 16 16 17 17 16 16 8 4 6 7 7 7 10 10 13 12 11 11 10 13 15 14 13 13 13 12 8 10 8 7
9 19 11 7 3 6 4 4 4 15 14 15 18 17 16 16 17 17 17 18 17 16 15 17 17 14 12 3 8 8 8 7 8 11 12 12 11 11 12 14 13 13 14 14 14 9 7 8 5
7 13 10 8 10 7 2 6 12 15 13 14 14 16 17 17 17 17 16 17 17 17 18 17 17 17 16 12 3 7 7 7 8 11 11 11 11 12 14 15 14 14 14 14 13 11 12 11 9
3 10 11 7 11 9 7 3 14 15 14 14 14 15 17 17 16 16 16 16 17 17 17 17 18 17 17 15 11 5 2 5 6 7 10 11 12 13 14 15 15 14 14 13 15 14 13 15 13
Wind_Direction
321 290 151 20 41 88 244 260 237 289 318 177 119 84 176 190 223 223 210 183 133 148 165 167 172 171 170 169 168 166 164 165 164 164 163 163 162 161 159 155 153 153 147 140 132 123 115 111 114
334 306 56 43 124 240 258 234 260 270 267 101 53 53 13 286 113 144 121 198 146 151 165 171 173 175 173 171 169 169 168 169 170 171 171 172 171 171 171 167 168 165 161 153 145 141 134 123 105
304 225 88 158 202 226 231 229 252 275 267 96 84 110 192 217 117 162 231 148 142 153 166 174 174 175 174 174 172 171 172 175 176 177 177 181 184 187 184 176 176 176 185 193 151 136 114 114 127
32 5 328 195 237 232 228 261 259 278 279 293 166 205 293 273 161 185 157 139 141 153 164 168 177 179 176 174 174 173 175 178 181 181 186 183 193 198 188 173 167 175 147 122 124 123 122 126 130
112 89 237 223 248 253 252 256 280 292 280 202 189 236 201 149 132 138 157 153 145 157 166 164 177 181 180 178 177 176 178 183 184 183 191 189 160 142 143 147 141 135 129 133 139 134 133 131 129
228 242 232 229 256 246 245 252 258 266 273 277 176 215 226 155 139 179 166 173 162 157 160 168 176 182 183 180 183 180 180 184 185 187 173 158 144 137 151 152 157 153 150 148 145 143 140 138 139
209 237 232 242 265 263 253 243 247 245 286 264 254 228 226 182 196 171 168 162 157 143 155 168 178 182 182 181 184 186 177 182 182 178 165 161 131 141 163 163 162 161 159 153 152 148 150 150 149
204 243 248 246 252 267 263 262 270 285 264 226 195 224 250 204 161 102 154 171 160 153 160 165 175 179 183 187 179 178 177 178 172 166 159 138 135 156 161 162 167 165 160 158 155 153 152 157 160
205 231 239 238 233 260 278 280 266 266 252 278 262 200 181 159 112 114 121 242 164 166 166 167 172 178 183 187 185 176 173 167 162 156 152 130 139 155 154 155 169 167 163 161 158 156 156 158 179
176 208 225 237 248 270 276 278 302 297 296 292 301 37 152 135 141 155 167 199 220 184 174 174 174 178 175 185 179 183 174 172 166 157 160 138 146 149 157 164 172 155 159 163 163 163 161 162 201
215 233 236 257 257 258 284 282 263 286 279 246 256 262 208 229 185 182 191 190 196 195 175 176 173 173 172 182 172 171 168 163 162 159 161 144 147 150 142 145 136 137 140 153 158 162 155 179 201
263 233 229 249 247 267 272 297 277 234 254 261 276 256 258 212 214 208 212 200 183 176 187 173 169 170 176 165 179 172 165 167 167 169 166 145 149 156 156 151 155 149 148 161 166 177 178 194 175
242 244 242 249 255 256 267 265 271 268 268 257 264 271 267 266 222 217 213 205 197 195 183 179 167 171 172 166 176 180 182 178 168 169 173 150 156 167 162 163 159 163 161 173 190 185 180 172 166
264 260 258 246 258 255 256 271 272 273 244 242 252 254 257 252 243 220 204 201 198 202 184 183 180 176 172 175 180 183 184 177 170 172 176 156 162 168 168 168 176 174 175 179 180 182 177 180 165
285 282 273 260 250 245 352 275 247 256 257 251 249 253 254 248 249 225 216 205 201 204 192 184 186 180 178 183 185 185 185 179 175 172 173 166 165 174 167 169 175 183 178 171 166 176 157 161 168
299 285 277 197 207 239 156 258 244 229 224 246 240 245 248 247 234 239 215 217 211 199 193 186 184 186 186 188 185 187 179 177 175 171 171 171 169 169 163 171 177 170 162 161 152 150 155 172 172
202 263 262 271 223 232 179 255 251 237 247 257 234 246 254 259 247 242 231 215 210 210 193 185 186 186 188 190 189 184 175 176 177 168 169 173 171 171 171 174 167 159 152 160 160 151 149 170 182
223 231 248 247 214 210 221 256 257 226 221 240 253 243 248 252 246 242 242 236 220 212 199 188 184 186 186 184 180 171 175 179 174 172 175 175 179 175 169 164 167 160 155 163 169 152 144 154 170
265 269 271 261 259 235 234 251 261 249 242 256 256 254 257 260 253 233 234 235 230 211 201 188 185 182 176 178 175 179 181 175 177 181 180 181 178 174 173 172 169 169 170 171 171 147 145 124 164
254 255 258 270 270 265 272 270 275 254 233 234 243 231 244 255 257 251 246 235 219 214 200 186 187 181 184 180 183 181 176 184 182 183 184 180 179 178 176 173 176 175 159 165 170 158 153 140 181
264 254 259 261 279 257 269 272 273 266 257 242 250 252 244 246 259 257 246 234 214 209 193 191 185 184 186 182 169 137 123 114 152 181 179 186 185 183 182 175 172 174 171 179 180 172 160 146 200
266 275 288 288 285 274 210 269 263 270 265 255 249 255 255 260 257 252 245 236 214 211 195 195 187 184 184 173 173 176 181 183 193 185 181 186 188 186 184 176 175 181 181 180 182 178 171 139 160
272 261 273 278 276 278 261 261 274 266 269 259 253 258 295 332 6 25 39 21 1 322 221 198 186 184 180 177 179 182 186 192 183 185 184 183 184 185 179 181 180 179 193 183 174 174 168 170 149
307 274 291 282 255 242 250 237 249 260 260 258 274 270 45 31 46 42 21 20 20 4 359 283 177 183 179 177 182 186 186 183 179 180 181 185 181 179 183 179 179 180 182 177 175 174 177 177 158
346 334 257 236 207 248 224 247 242 273 244 255 288 51 27 32 37 32 27 17 15 11 360 343 177 153 172 177 180 185 187 184 181 178 183 180 181 187 189 184 188 182 180 176 172 177 178 177 174
303 274 276 257 223 244 189 238 239 245 271 258 79 64 40 36 29 32 25 20 16 14 9 3 348 95 142 172 182 182 181 181 178 181 183 186 191 195 187 189 184 184 178 171 170 175 176 174 174
329 335 292 274 260 280 191 293 301 27 52 48 52 44 40 33 28 29 23 19 14 15 10 4 10 354 142 170 167 166 160 175 177 181 184 185 187 189 186 190 184 178 170 166 165 171 180 177 163
323 346 345 323 276 214 202 197 268 22 36 38 36 35 33 30 29 25 20 15 14 14 10 9 11 11 5 235 170 168 166 167 163 174 179 185 188 183 177 184 185 177 174 173 170 167 164 171 171
20 11 11 294 326 333 337 87 34 39 40 46 42 39 33 28 24 21 19 14 10 12 12 9 8 6 2 357 298 165 170 171 164 182 184 183 178 179 179 183 184 184 181 178 175 176 164 169 166
55 15 14 341 329 307 268 84 63 31 29 47 46 40 36 29 24 21 18 13 12 12 11 9 6 7 3 0 7 23 160 177 168 175 184 179 182 184 181 182 184 186 185 181 179 172 175 174 177